STARLINK-4762 (53866 NORAD) Tracking and Keplerian Element Data

This shows tracking and keplerian element data for the satellite.

Feedback or suggestion? Click here.




ElementValue
Catalog53866
NameSTARLINK-4762
Epoch Orbit1053
Epoch Day325.33334491
Epoch Year2022
RAAN305.5443
Inclination53.214
Eccentricity0.0004061
Argument of Perigee4.4956
Mean Anonmoly70.9676
Mean Motion15.7318203
Decay Rate0.00042646
L11 53866U 22114BA 22325.33334491 .00042646 00000+0 30687-3 0 9990
L22 53866 53.2140 305.5443 0004061 4.4956 70.9676 15.73182030 10532



Live tracking and technical data element details for STARLINK-4762 (NORAD 53866). STARLINK-4762 can be tracked NOW for your location showing map with azimuth and elevation plus other details from your city location.







IsCatalogInMostPopularTable: catalog: 53866, numindb: 1
Update: records affected: 1



GetName: 53866 STARLINK-4762

Hit Count: updated at: Thu, 08 Dec 2022 09:44:35 GMT